| time (UTC) | temp F | wind direction | speed MPH | gust MPH | rain 1hr in | rain 24hr in | rain mn in | humidity % | barometer mb |
| 20260505153050 | 47 | 325 | 3.0 | 7.0 | 0.00 | 0.00 | 0.00 | 93 | 1015.0 |
| 20260505152542 | 46 | 324 | 3.0 | 5.0 | 0.00 | 0.00 | 0.00 | 93 | 1015.0 |
| 20260505152047 | 46 | 316 | 3.0 | 5.0 | 0.00 | 0.00 | 0.00 | 94 | 1015.0 |
| 20260505151552 | 46 | 315 | 3.0 | 5.0 | 0.00 | 0.00 | 0.00 | 94 | 1014.9 |
| 20260505151043 | 46 | 323 | 2.0 | 5.0 | 0.00 | 0.00 | 0.00 | 93 | 1014.9 |
| 20260505150545 | 46 | 319 | 2.0 | 4.0 | 0.00 | 0.00 | 0.00 | 93 | 1014.7 |
| 20260505140544 | 45 | 311 | 5.0 | 8.0 | 0.00 | 0.00 | 0.00 | 94 | 1014.3 |
| 20260505140105 | 45 | 298 | 3.0 | 7.0 | 0.00 | 0.00 | 0.00 | 94 | 1014.3 |
| 20260505124611 | 46 | 311 | 5.0 | 8.0 | 0.00 | 0.00 | 0.00 | 93 | 1014.2 |
| 20260505124047 | 45 | 315 | 5.0 | 8.0 | 0.00 | 0.00 | 0.00 | 92 | 1014.1 |
| 20260505123543 | 45 | 310 | 5.0 | 8.0 | 0.00 | 0.00 | 0.00 | 92 | 1014.2 |
| 20260505123106 | 45 | 306 | 3.0 | 5.0 | 0.00 | 0.00 | 0.00 | 92 | 1014.1 |
| 20260505122543 | 46 | 316 | 2.0 | 4.0 | 0.00 | 0.00 | 0.00 | 92 | 1014.1 |
| 20260505122043 | 46 | 315 | 2.0 | 4.0 | 0.00 | 0.00 | 0.00 | 92 | 1014.1 |
| 20260505121549 | 46 | 315 | 1.0 | 4.0 | 0.00 | 0.00 | 0.00 | 92 | 1014.1 |
| 20260505121043 | 46 | 315 | 2.0 | 5.0 | 0.00 | 0.00 | 0.00 | 92 | 1014.2 |
| 20260505120543 | 46 | 311 | 2.0 | 5.0 | 0.00 | 0.00 | 0.00 | 92 | 1014.2 |
| 20260505120055 | 46 | 312 | 2.0 | 5.0 | 0.00 | 0.00 | 0.00 | 92 | 1014.2 |
| 20260505115543 | 46 | 317 | 3.0 | 5.0 | 0.00 | 0.00 | 0.00 | 92 | 1014.2 |
| 20260505115043 | 46 | 306 | 3.0 | 6.0 | 0.00 | 0.00 | 0.00 | 92 | 1014.3 |
| 20260505114549 | 46 | 321 | 3.0 | 9.0 | 0.00 | 0.00 | 0.00 | 91 | 1014.3 |
| 20260505114046 | 46 | 315 | 4.0 | 9.0 | 0.00 | 0.00 | 0.00 | 92 | 1014.1 |
| 20260505113545 | 46 | 304 | 6.0 | 9.0 | 0.00 | 0.00 | 0.00 | 92 | 1014.2 |
| 20260505113101 | 45 | 314 | 6.0 | 9.0 | 0.00 | 0.00 | 0.00 | 91 | 1014.3 |
| 20260505112544 | 45 | 315 | 6.0 | 10.0 | 0.00 | 0.00 | 0.00 | 91 | 1014.3 |
| 20260505112045 | 45 | 324 | 6.0 | 10.0 | 0.00 | 0.00 | 0.00 | 91 | 1014.2 |
| 20260505111553 | 45 | 321 | 5.0 | 8.0 | 0.00 | 0.00 | 0.00 | 91 | 1014.2 |
| 20260505111041 | 45 | 317 | 5.0 | 8.0 | 0.00 | 0.00 | 0.00 | 91 | 1014.1 |
| 20260505110544 | 45 | 316 | 5.0 | 8.0 | 0.00 | 0.00 | 0.00 | 91 | 1014.1 |
| 20260505102043 | 45 | 316 | 5.0 | 9.0 | 0.00 | 0.00 | 0.00 | 95 | 1014.2 |
| 20260505101549 | 45 | 311 | 5.0 | 9.0 | 0.00 | 0.00 | 0.00 | 95 | 1014.3 |
| 20260505101044 | 45 | 312 | 5.0 | 8.0 | 0.00 | 0.00 | 0.00 | 95 | 1014.3 |
| 20260505100545 | 45 | 308 | 5.0 | 7.0 | 0.00 | 0.00 | 0.00 | 95 | 1014.4 |
| 20260505100210 | 45 | 314 | 4.0 | 6.0 | 0.00 | 0.00 | 0.00 | 95 | 1014.4 |
| 20260505095543 | 45 | 311 | 4.0 | 5.0 | 0.00 | 0.00 | 0.00 | 95 | 1014.4 |
| 20260505095043 | 45 | 312 | 3.0 | 5.0 | 0.00 | 0.00 | 0.00 | 95 | 1014.4 |
| 20260505094553 | 45 | 315 | 3.0 | 7.0 | 0.00 | 0.00 | 0.00 | 95 | 1014.4 |
| 20260505094044 | 45 | 311 | 4.0 | 7.0 | 0.00 | 0.00 | 0.00 | 94 | 1014.4 |
| 20260505093543 | 45 | 314 | 4.0 | 6.0 | 0.00 | 0.00 | 0.00 | 94 | 1014.3 |
| 20260505093054 | 45 | 316 | 4.0 | 7.0 | 0.00 | 0.00 | 0.00 | 94 | 1014.4 |
| 20260505092545 | 45 | 306 | 4.0 | 7.0 | 0.00 | 0.00 | 0.00 | 95 | 1014.3 |
| 20260505092044 | 45 | 304 | 3.0 | 7.0 | 0.00 | 0.00 | 0.00 | 94 | 1014.4 |
| 20260505091606 | 45 | 307 | 3.0 | 5.0 | 0.00 | 0.00 | 0.00 | 94 | 1014.5 |
| 20260505091045 | 45 | 318 | 4.0 | 5.0 | 0.00 | 0.00 | 0.00 | 94 | 1014.6 |
| 20260505090544 | 45 | 317 | 4.0 | 8.0 | 0.00 | 0.00 | 0.00 | 94 | 1014.7 |
| 20260505090057 | 45 | 321 | 4.0 | 8.0 | 0.00 | 0.00 | 0.00 | 94 | 1014.7 |
| 20260505085545 | 45 | 312 | 2.0 | 4.0 | 0.00 | 0.00 | 0.00 | 94 | 1014.7 |
| 20260505085044 | 46 | 304 | 2.0 | 5.0 | 0.00 | 0.00 | 0.00 | 94 | 1014.7 |
| 20260505084553 | 46 | 311 | 3.0 | 5.0 | 0.00 | 0.00 | 0.00 | 94 | 1015.0 |
| 20260505084043 | 46 | 306 | 3.0 | 5.0 | 0.00 | 0.00 | 0.00 | 94 | 1014.9 |
| 20260505083543 | 46 | 328 | 3.0 | 5.0 | 0.00 | 0.00 | 0.00 | 94 | 1014.9 |
| 20260505083056 | 46 | 317 | 2.0 | 5.0 | 0.00 | 0.00 | 0.00 | 94 | 1014.9 |
| 20260505082547 | 46 | 290 | 2.0 | 7.0 | 0.00 | 0.00 | 0.00 | 94 | 1014.9 |
| 20260505082044 | 46 | 311 | 3.0 | 8.0 | 0.00 | 0.00 | 0.00 | 93 | 1014.9 |
| 20260505081558 | 46 | 309 | 3.0 | 8.0 | 0.00 | 0.00 | 0.00 | 93 | 1014.9 |
| 20260505081044 | 46 | 302 | 4.0 | 8.0 | 0.00 | 0.00 | 0.00 | 93 | 1015.1 |
| 20260505080543 | 46 | 309 | 4.0 | 8.0 | 0.00 | 0.00 | 0.00 | 93 | 1015.1 |
| 20260505080108 | 46 | 312 | 3.0 | 8.0 | 0.00 | 0.00 | 0.00 | 93 | 1015.1 |
| 20260505075543 | 46 | 311 | 4.0 | 8.0 | 0.00 | 0.00 | 0.00 | 93 | 1015.2 |
| 20260505075043 | 46 | 303 | 3.0 | 8.0 | 0.00 | 0.00 | 0.00 | 93 | 1015.2 |
| 20260505074552 | 46 | 308 | 4.0 | 9.0 | 0.00 | 0.00 | 0.00 | 93 | 1015.2 |
| 20260505074043 | 46 | 310 | 4.0 | 9.0 | 0.00 | 0.00 | 0.00 | 93 | 1015.1 |
| 20260505073543 | 46 | 321 | 6.0 | 9.0 | 0.00 | 0.00 | 0.00 | 93 | 1015.1 |
| 20260505073051 | 46 | 311 | 4.0 | 9.0 | 0.00 | 0.00 | 0.00 | 94 | 1015.2 |
| 20260505072546 | 47 | 321 | 6.0 | 9.0 | 0.00 | 0.00 | 0.00 | 94 | 1015.1 |
| 20260505072046 | 47 | 329 | 4.0 | 9.0 | 0.00 | 0.00 | 0.00 | 94 | 1015.1 |
| 20260505071558 | 47 | 311 | 5.0 | 9.0 | 0.00 | 0.00 | 0.00 | 94 | 1015.0 |
| 20260505071044 | 47 | 323 | 5.0 | 9.0 | 0.00 | 0.00 | 0.00 | 94 | 1015.0 |
| 20260505070544 | 47 | 317 | 5.0 | 9.0 | 0.00 | 0.00 | 0.00 | 94 | 1014.8 |
| 20260505070052 | 47 | 320 | 5.0 | 9.0 | 0.00 | 0.00 | 0.00 | 93 | 1014.9 |
| 20260505065543 | 47 | 310 | 4.0 | 8.0 | 0.00 | 0.00 | 0.00 | 93 | 1015.0 |
| 20260505065043 | 47 | 320 | 4.0 | 8.0 | 0.00 | 0.00 | 0.00 | 93 | 1015.0 |
| 20260505064548 | 47 | 302 | 4.0 | 8.0 | 0.00 | 0.00 | 0.00 | 94 | 1015.0 |
| 20260505064046 | 47 | 307 | 5.0 | 7.0 | 0.00 | 0.00 | 0.00 | 94 | 1015.0 |
| 20260505063543 | 47 | 317 | 4.0 | 8.0 | 0.00 | 0.00 | 0.00 | 94 | 1014.9 |
| 20260505063114 | 47 | 319 | 3.0 | 8.0 | 0.00 | 0.00 | 0.00 | 94 | 1014.8 |
| 20260505062540 | 47 | 319 | 3.0 | 8.0 | 0.00 | 0.00 | 0.00 | 94 | 1014.8 |
| 20260505062043 | 47 | 319 | 3.0 | 6.0 | 0.00 | 0.00 | 0.00 | 93 | 1014.7 |
| 20260505061620 | 47 | 307 | 3.0 | 5.0 | 0.00 | 0.00 | 0.00 | 93 | 1014.7 |
| 20260505061044 | 47 | 309 | 2.0 | 4.0 | 0.00 | 0.00 | 0.00 | 93 | 1014.8 |
| 20260505060546 | 47 | 312 | 2.0 | 4.0 | 0.00 | 0.00 | 0.00 | 93 | 1014.7 |
| 20260505055544 | 47 | 317 | 0.0 | 4.0 | 0.00 | 0.00 | 0.00 | 93 | 1015.0 |
| 20260505055046 | 47 | 317 | 2.0 | 4.0 | 0.00 | 0.00 | 0.00 | 93 | 1015.1 |
| 20260505054555 | 47 | 317 | 2.0 | 5.0 | 0.00 | 0.00 | 0.00 | 92 | 1015.0 |
| 20260505054040 | 47 | 323 | 3.0 | 5.0 | 0.00 | 0.00 | 0.00 | 92 | 1015.1 |
| 20260505053543 | 47 | 309 | 2.0 | 5.0 | 0.00 | 0.00 | 0.00 | 92 | 1015.3 |
| 20260505053053 | 47 | 315 | 2.0 | 6.0 | 0.00 | 0.00 | 0.00 | 92 | 1015.3 |
| 20260505052543 | 47 | 317 | 3.0 | 6.0 | 0.00 | 0.00 | 0.00 | 92 | 1015.3 |
| 20260505052043 | 47 | 313 | 2.0 | 8.0 | 0.00 | 0.00 | 0.00 | 92 | 1015.3 |
| 20260505051609 | 47 | 321 | 4.0 | 8.0 | 0.00 | 0.00 | 0.00 | 92 | 1015.4 |
| 20260505051043 | 47 | 312 | 4.0 | 8.0 | 0.00 | 0.00 | 0.00 | 92 | 1015.4 |
| 20260505050543 | 47 | 313 | 3.0 | 7.0 | 0.00 | 0.00 | 0.00 | 93 | 1015.4 |
| 20260505041551 | 47 | 311 | 3.0 | 8.0 | 0.00 | 0.00 | 0.00 | 92 | 1015.1 |
| 20260505041043 | 47 | 311 | 4.0 | 8.0 | 0.00 | 0.00 | 0.00 | 92 | 1015.1 |
| 20260505040542 | 47 | 320 | 5.0 | 9.0 | 0.00 | 0.00 | 0.00 | 91 | 1015.0 |
| 20260505040049 | 47 | 309 | 5.0 | 9.0 | 0.00 | 0.00 | 0.00 | 91 | 1015.0 |
| 20260505035540 | 47 | 318 | 6.0 | 9.0 | 0.00 | 0.00 | 0.00 | 91 | 1014.9 |
| 20260505035043 | 48 | 311 | 4.0 | 8.0 | 0.00 | 0.00 | 0.00 | 91 | 1014.8 |
| 20260505034548 | 48 | 314 | 4.0 | 8.0 | 0.00 | 0.00 | 0.00 | 90 | 1014.7 |
| 20260505034044 | 48 | 321 | 3.0 | 6.0 | 0.00 | 0.00 | 0.00 | 90 | 1014.5 |
| 20260505033544 | 48 | 311 | 3.0 | 7.0 | 0.00 | 0.00 | 0.00 | 89 | 1014.6 |
| 20260505033046 | 48 | 327 | 3.0 | 7.0 | 0.00 | 0.00 | 0.00 | 89 | 1014.6 |
| 20260505032543 | 48 | 313 | 3.0 | 7.0 | 0.00 | 0.00 | 0.00 | 88 | 1014.6 |
| 20260505032046 | 48 | 320 | 3.0 | 5.0 | 0.00 | 0.00 | 0.00 | 88 | 1014.5 |
| 20260505031555 | 48 | 309 | 3.0 | 7.0 | 0.00 | 0.00 | 0.00 | 88 | 1014.5 |
| 20260505031044 | 48 | 307 | 3.0 | 7.0 | 0.00 | 0.00 | 0.00 | 88 | 1014.6 |
| 20260505030545 | 48 | 315 | 2.0 | 5.0 | 0.00 | 0.00 | 0.00 | 88 | 1014.6 |
| 20260505030048 | 49 | 315 | 3.0 | 6.0 | 0.00 | 0.00 | 0.00 | 88 | 1014.6 |
| 20260505025545 | 49 | 322 | 3.0 | 6.0 | 0.00 | 0.00 | 0.00 | 88 | 1014.6 |
| 20260505025045 | 49 | 317 | 2.0 | 5.0 | 0.00 | 0.00 | 0.00 | 87 | 1014.5 |
| 20260505024553 | 49 | 319 | 3.0 | 7.0 | 0.00 | 0.00 | 0.00 | 86 | 1014.4 |
| 20260505024045 | 49 | 298 | 3.0 | 8.0 | 0.00 | 0.00 | 0.00 | 87 | 1014.4 |
| 20260505023544 | 49 | 311 | 3.0 | 9.0 | 0.00 | 0.00 | 0.00 | 86 | 1014.6 |
| 20260505023051 | 49 | 303 | 4.0 | 10.0 | 0.00 | 0.00 | 0.00 | 86 | 1014.5 |
| 20260505022543 | 49 | 294 | 5.0 | 10.0 | 0.00 | 0.00 | 0.00 | 85 | 1014.5 |
| 20260505022043 | 49 | 313 | 4.0 | 10.0 | 0.00 | 0.00 | 0.00 | 85 | 1014.6 |
| 20260505021552 | 50 | 309 | 6.0 | 10.0 | 0.00 | 0.00 | 0.00 | 85 | 1014.4 |
| 20260505021044 | 50 | 289 | 5.0 | 10.0 | 0.00 | 0.00 | 0.00 | 85 | 1014.3 |
| 20260505020544 | 50 | 307 | 5.0 | 9.0 | 0.00 | 0.00 | 0.00 | 84 | 1014.4 |
| 20260505020059 | 50 | 319 | 5.0 | 10.0 | 0.00 | 0.00 | 0.00 | 84 | 1014.5 |
| 20260505015543 | 50 | 312 | 5.0 | 10.0 | 0.00 | 0.00 | 0.00 | 84 | 1014.6 |
| 20260505015047 | 51 | 310 | 5.0 | 10.0 | 0.00 | 0.00 | 0.00 | 84 | 1014.5 |
| 20260505014552 | 51 | 305 | 4.0 | 8.0 | 0.00 | 0.00 | 0.00 | 84 | 1014.5 |
| 20260505014043 | 51 | 321 | 4.0 | 8.0 | 0.00 | 0.00 | 0.00 | 84 | 1014.6 |
| 20260505013543 | 52 | 300 | 2.0 | 8.0 | 0.00 | 0.00 | 0.00 | 83 | 1014.6 |
| 20260505013103 | 52 | 326 | 4.0 | 7.0 | 0.00 | 0.00 | 0.00 | 83 | 1014.6 |
| 20260505012543 | 52 | 292 | 3.0 | 5.0 | 0.00 | 0.00 | 0.00 | 82 | 1014.7 |
| 20260505012044 | 52 | 303 | 3.0 | 5.0 | 0.00 | 0.00 | 0.00 | 82 | 1014.7 |
| 20260505011545 | 52 | 304 | 3.0 | 5.0 | 0.00 | 0.00 | 0.00 | 81 | 1014.9 |
| 20260505011044 | 53 | 312 | 3.0 | 5.0 | 0.00 | 0.00 | 0.00 | 81 | 1014.7 |
| 20260505010543 | 53 | 305 | 2.0 | 5.0 | 0.00 | 0.00 | 0.00 | 81 | 1014.7 |
| 20260505010110 | 53 | 298 | 1.0 | 5.0 | 0.00 | 0.00 | 0.00 | 82 | 1014.8 |
| 20260505005543 | 53 | 309 | 2.0 | 7.0 | 0.00 | 0.00 | 0.00 | 82 | 1014.9 |
| 20260505005043 | 52 | 328 | 2.0 | 7.0 | 0.00 | 0.00 | 0.00 | 81 | 1015.0 |
| 20260505004548 | 52 | 312 | 1.0 | 5.0 | 0.00 | 0.00 | 0.00 | 82 | 1015.1 |
| 20260505004042 | 52 | 313 | 2.0 | 8.0 | 0.00 | 0.00 | 0.00 | 82 | 1015.0 |
| 20260505003545 | 52 | 306 | 2.0 | 8.0 | 0.00 | 0.00 | 0.00 | 82 | 1015.0 |
| 20260505003054 | 52 | 313 | 4.0 | 8.0 | 0.00 | 0.00 | 0.00 | 83 | 1015.0 |
| 20260505002543 | 52 | 292 | 3.0 | 8.0 | 0.00 | 0.00 | 0.00 | 83 | 1015.1 |
| 20260505002043 | 52 | 310 | 3.0 | 8.0 | 0.00 | 0.00 | 0.00 | 83 | 1015.1 |
| 20260505001553 | 52 | 318 | 3.0 | 7.0 | 0.00 | 0.00 | 0.00 | 83 | 1015.1 |
| 20260505001046 | 51 | 327 | 2.0 | 7.0 | 0.00 | 0.00 | 0.00 | 84 | 1015.0 |
| 20260505000543 | 51 | 309 | 2.0 | 7.0 | 0.00 | 0.00 | 0.00 | 84 | 1015.0 |
| 20260505000047 | 51 | 317 | 3.0 | 7.0 | 0.00 | 0.00 | 0.00 | 85 | 1015.0 |
| 20260504235543 | 51 | 304 | 3.0 | 7.0 | 0.00 | 0.00 | 0.00 | 85 | 1015.0 |
| 20260504235043 | 51 | 336 | 2.0 | 8.0 | 0.00 | 0.00 | 0.00 | 86 | 1015.0 |
| 20260504234548 | 51 | 309 | 3.0 | 8.0 | 0.00 | 0.00 | 0.00 | 86 | 1015.0 |
| 20260504234045 | 50 | 314 | 3.0 | 7.0 | 0.00 | 0.00 | 0.00 | 86 | 1015.0 |
| 20260504233543 | 50 | 306 | 3.0 | 7.0 | 0.00 | 0.00 | 0.00 | 86 | 1015.2 |
| 20260504233107 | 50 | 313 | 2.0 | 4.0 | 0.00 | 0.00 | 0.00 | 87 | 1015.1 |
| 20260504232545 | 49 | 309 | 1.0 | 5.0 | 0.00 | 0.00 | 0.00 | 88 | 1015.1 |
| 20260504232043 | 49 | 315 | 2.0 | 6.0 | 0.00 | 0.00 | 0.00 | 88 | 1015.1 |
| 20260504231552 | 49 | 308 | 3.0 | 9.0 | 0.00 | 0.00 | 0.00 | 88 | 1015.0 |
| 20260504231043 | 49 | 312 | 4.0 | 9.0 | 0.00 | 0.00 | 0.00 | 87 | 1015.2 |
| 20260504230544 | 50 | 306 | 5.0 | 9.0 | 0.00 | 0.00 | 0.00 | 87 | 1015.3 |
| 20260504230054 | 50 | 308 | 5.0 | 9.0 | 0.00 | 0.00 | 0.00 | 87 | 1015.2 |
| 20260504225545 | 50 | 323 | 5.0 | 9.0 | 0.00 | 0.00 | 0.00 | 86 | 1015.2 |
| 20260504225043 | 51 | 319 | 6.0 | 9.0 | 0.00 | 0.00 | 0.00 | 85 | 1015.2 |
| 20260504224558 | 52 | 286 | 5.0 | 9.0 | 0.00 | 0.00 | 0.00 | 85 | 1015.1 |
| 20260504224044 | 52 | 302 | 4.0 | 9.0 | 0.00 | 0.00 | 0.00 | 83 | 1015.1 |
| 20260504223544 | 53 | 292 | 5.0 | 9.0 | 0.00 | 0.00 | 0.00 | 82 | 1015.2 |
| 20260504223055 | 53 | 296 | 3.0 | 7.0 | 0.00 | 0.00 | 0.00 | 83 | 1015.2 |
| 20260504222544 | 53 | 304 | 3.0 | 7.0 | 0.00 | 0.00 | 0.00 | 83 | 1015.2 |
| 20260504222047 | 53 | 287 | 3.0 | 7.0 | 0.00 | 0.00 | 0.00 | 82 | 1015.2 |
| 20260504221552 | 52 | 313 | 2.0 | 7.0 | 0.00 | 0.00 | 0.00 | 84 | 1015.2 |
| 20260504221044 | 52 | 300 | 3.0 | 7.0 | 0.00 | 0.00 | 0.00 | 83 | 1015.2 |
| 20260504220545 | 52 | 290 | 3.0 | 7.0 | 0.00 | 0.00 | 0.00 | 82 | 1015.3 |
| 20260504220054 | 52 | 286 | 2.0 | 5.0 | 0.00 | 0.00 | 0.00 | 84 | 1015.4 |
| 20260504215547 | 51 | 321 | 2.0 | 5.0 | 0.00 | 0.00 | 0.00 | 86 | 1015.5 |
| 20260504215043 | 51 | 316 | 2.0 | 5.0 | 0.00 | 0.00 | 0.00 | 88 | 1015.5 |
| 20260504214556 | 51 | 303 | 3.0 | 7.0 | 0.00 | 0.00 | 0.00 | 88 | 1015.5 |
| 20260504214049 | 50 | 318 | 2.0 | 7.0 | 0.00 | 0.00 | 0.00 | 88 | 1015.6 |
| 20260504213545 | 50 | 304 | 2.0 | 5.0 | 0.00 | 0.00 | 0.00 | 88 | 1015.6 |
| 20260504213052 | 50 | 304 | 2.0 | 5.0 | 0.00 | 0.00 | 0.00 | 88 | 1015.6 |
| 20260504212544 | 50 | 310 | 2.0 | 6.0 | 0.00 | 0.00 | 0.00 | 88 | 1015.5 |
| 20260504212048 | 50 | 303 | 2.0 | 6.0 | 0.00 | 0.00 | 0.00 | 88 | 1015.6 |
| 20260504211550 | 50 | 317 | 3.0 | 7.0 | 0.00 | 0.00 | 0.00 | 87 | 1015.7 |
| 20260504211046 | 50 | 297 | 3.0 | 8.0 | 0.00 | 0.00 | 0.00 | 87 | 1015.7 |
| 20260504210549 | 50 | 311 | 3.0 | 9.0 | 0.00 | 0.00 | 0.00 | 87 | 1015.7 |
| 20260504210105 | 50 | 301 | 5.0 | 9.0 | 0.00 | 0.00 | 0.00 | 87 | 1015.7 |
| 20260504205547 | 50 | 318 | 3.0 | 8.0 | 0.00 | 0.00 | 0.00 | 87 | 1015.7 |
| 20260504205046 | 50 | 298 | 3.0 | 8.0 | 0.00 | 0.00 | 0.00 | 86 | 1015.6 |
| 20260504204557 | 50 | 318 | 4.0 | 8.0 | 0.00 | 0.00 | 0.00 | 85 | 1015.6 |
| 20260504204040 | 50 | 323 | 1.0 | 8.0 | 0.00 | 0.00 | 0.00 | 85 | 1015.6 |
| 20260504203544 | 50 | 306 | 3.0 | 8.0 | 0.00 | 0.00 | 0.00 | 85 | 1015.6 |
| 20260504203105 | 50 | 298 | 4.0 | 8.0 | 0.00 | 0.00 | 0.00 | 85 | 1015.5 |
| 20260504202545 | 51 | 304 | 3.0 | 8.0 | 0.00 | 0.00 | 0.00 | 85 | 1015.6 |
| 20260504202045 | 51 | 305 | 4.0 | 7.0 | 0.00 | 0.00 | 0.00 | 85 | 1015.6 |
| 20260504201549 | 51 | 316 | 2.0 | 7.0 | 0.00 | 0.00 | 0.00 | 84 | 1015.6 |
| 20260504201044 | 51 | 313 | 3.0 | 6.0 | 0.00 | 0.00 | 0.00 | 84 | 1015.7 |
| 20260504200544 | 51 | 312 | 2.0 | 7.0 | 0.00 | 0.00 | 0.00 | 83 | 1015.6 |
| 20260504200053 | 51 | 310 | 4.0 | 7.0 | 0.00 | 0.00 | 0.00 | 82 | 1015.6 |
| 20260504195544 | 52 | 325 | 4.0 | 7.0 | 0.00 | 0.00 | 0.00 | 82 | 1015.6 |
| 20260504195044 | 52 | 316 | 1.0 | 7.0 | 0.00 | 0.00 | 0.00 | 81 | 1015.7 |
| 20260504194600 | 52 | 317 | 2.0 | 4.0 | 0.00 | 0.00 | 0.00 | 80 | 1015.6 |
| 20260504194042 | 52 | 323 | 0.0 | 2.0 | 0.00 | 0.00 | 0.00 | 81 | 1015.7 |
| 20260504193544 | 52 | 323 | 0.0 | 3.0 | 0.00 | 0.00 | 0.00 | 81 | 1015.6 |
| 20260504193053 | 52 | 0 | 0.0 | 3.0 | 0.00 | 0.00 | 0.00 | 81 | 1015.5 |
| 20260504192545 | 52 | 0 | 0.0 | 3.0 | 0.00 | 0.00 | 0.00 | 80 | 1015.6 |
| 20260504192043 | 52 | 323 | 1.0 | 3.0 | 0.00 | 0.00 | 0.00 | 82 | 1015.7 |
| 20260504191551 | 52 | 0 | 0.0 | 5.0 | 0.00 | 0.00 | 0.00 | 82 | 1015.6 |
| 20260504191044 | 52 | 0 | 2.0 | 5.0 | 0.00 | 0.00 | 0.00 | 82 | 1015.6 |
| 20260504190544 | 52 | 0 | 0.0 | 5.0 | 0.00 | 0.00 | 0.00 | 83 | 1015.6 |
| 20260504190121 | 51 | 306 | 0.0 | 4.0 | 0.00 | 0.00 | 0.00 | 85 | 1015.5 |
| 20260504185544 | 51 | 306 | 1.0 | 4.0 | 0.00 | 0.00 | 0.00 | 84 | 1015.6 |
| 20260504185045 | 51 | 321 | 2.0 | 3.0 | 0.00 | 0.00 | 0.00 | 85 | 1015.5 |
| 20260504184553 | 51 | 0 | 0.0 | 3.0 | 0.00 | 0.00 | 0.00 | 84 | 1015.6 |
| 20260504184047 | 51 | 0 | 1.0 | 3.0 | 0.00 | 0.00 | 0.00 | 84 | 1015.6 |
| 20260504183545 | 51 | 322 | 2.0 | 5.0 | 0.00 | 0.00 | 0.00 | 83 | 1015.6 |
| 20260504183051 | 51 | 0 | 2.0 | 5.0 | 0.00 | 0.00 | 0.00 | 82 | 1015.5 |
| 20260504182544 | 52 | 0 | 1.0 | 5.0 | 0.00 | 0.00 | 0.00 | 82 | 1015.6 |
| 20260504182045 | 52 | 329 | 2.0 | 5.0 | 0.00 | 0.00 | 0.00 | 82 | 1015.6 |
| 20260504181555 | 52 | 319 | 1.0 | 4.0 | 0.00 | 0.00 | 0.00 | 81 | 1015.4 |
| 20260504181044 | 52 | 0 | 1.0 | 4.0 | 0.00 | 0.00 | 0.00 | 80 | 1015.4 |
| 20260504180546 | 52 | 0 | 2.0 | 4.0 | 0.00 | 0.00 | 0.00 | 80 | 1015.4 |
| 20260504180052 | 52 | 302 | 1.0 | 4.0 | 0.00 | 0.00 | 0.00 | 80 | 1015.4 |
| 20260504175543 | 53 | 302 | 2.0 | 4.0 | 0.00 | 0.00 | 0.00 | 80 | 1015.1 |
| 20260504175044 | 53 | 268 | 0.0 | 4.0 | 0.00 | 0.00 | 0.00 | 80 | 1015.2 |
| 20260504174559 | 53 | 0 | 0.0 | 0.0 | 0.00 | 0.00 | 0.00 | 79 | 1015.1 |
| 20260504174044 | 53 | 0 | 0.0 | 3.0 | 0.00 | 0.00 | 0.00 | 78 | 1015.1 |
| 20260504173543 | 53 | 0 | 0.0 | 3.0 | 0.00 | 0.00 | 0.00 | 79 | 1015.0 |
| 20260504173052 | 53 | 0 | 0.0 | 3.0 | 0.00 | 0.00 | 0.00 | 76 | 1015.0 |
| 20260504172544 | 53 | 0 | 0.0 | 0.0 | 0.00 | 0.00 | 0.00 | 77 | 1015.0 |
| 20260504172045 | 53 | 0 | 0.0 | 0.0 | 0.00 | 0.00 | 0.00 | 78 | 1014.9 |
| 20260504171551 | 52 | 0 | 0.0 | 0.0 | 0.00 | 0.00 | 0.00 | 78 | 1015.0 |
| 20260504171045 | 52 | 0 | 0.0 | 2.0 | 0.00 | 0.00 | 0.00 | 78 | 1014.8 |
| 20260504170544 | 52 | 0 | 0.0 | 2.0 | 0.00 | 0.00 | 0.00 | 77 | 1014.7 |